owner,sensor,date,latitude,longitude,vertical_datum,direction_of_sea_water_velocity,sea_water_speed,upward_sea_water_velocity,qcFlag 
TABS,ioos:station:wmo:42050:1,2008-05-01T00:00:00Z,28.8425,-94.2433,2.0,274.8103089,8.228979281,-99999.0,'11133222,11111222,99999999' 
TABS,ioos:station:wmo:42050:1,2008-05-01T00:30:00Z,28.8425,-94.2433,2.0,279.5757937,5.831243435,-99999.0,'11133222,11111222,99999999' 
TABS,ioos:station:wmo:42050:1,2008-05-01T01:00:00Z,28.8425,-94.2433,2.0,292.8573886,5.94697402,-99999.0,'11133222,11111222,99999999' 
TABS,ioos:station:wmo:42050:1,2008-05-01T01:30:00Z,28.8425,-94.2433,2.0,332.8124672,12.34382437,-99999.0,'11111222,11111222,99999999' 
TABS,ioos:station:wmo:42050:1,2008-05-01T02:00:00Z,28.8425,-94.2433,2.0,286.7077376,13.53121207,-99999.0,'11111222,11111222,99999999' 
TABS,ioos:station:wmo:42050:1,2008-05-01T02:30:00Z,28.8425,-94.2433,2.0,303.1116854,16.47543626,-99999.0,'11111222,11111222,99999999' 
TABS,ioos:station:wmo:42050:1,2008-05-01T03:00:00Z,28.8425,-94.2433,2.0,298.3851417,19.8573538,-99999.0,'11111222,11111222,99999999' 
TABS,ioos:station:wmo:42050:1,2008-05-01T03:30:00Z,28.8425,-94.2433,2.0,289.8574686,15.92697397,-99999.0,'11111222,11111222,99999999' 
TABS,ioos:station:wmo:42050:1,2008-05-01T04:00:00Z,28.8425,-94.2433,2.0,299.7895168,17.6526287,-99999.0,'11111222,11111222,99999999' 
TABS,ioos:station:wmo:42050:1,2008-05-01T04:30:00Z,28.8425,-94.2433,2.0,310.1528285,15.64767395,-99999.0,'11111222,11111222,99999999' 
TABS,ioos:station:wmo:42050:1,2008-05-01T05:00:00Z,28.8425,-94.2433,2.0,315.4403658,13.81020275,-99999.0,'11111222,11111222,99999999' 
TABS,ioos:station:wmo:42050:1,2008-05-01T05:30:00Z,28.8425,-94.2433,2.0,315.5689883,11.39912277,-99999.0,'11111222,11111222,99999999' 
TABS,ioos:station:wmo:42050:1,2008-05-01T06:00:00Z,28.8425,-94.2433,2.0,316.0298306,13.38062031,-99999.0,'11111222,11111222,99999999' 
TABS,ioos:station:wmo:42050:1,2008-05-01T06:30:00Z,28.8425,-94.2433,2.0,315.9110079,9.787594189,-99999.0,'11133222,11111222,99999999' 
TABS,ioos:station:wmo:42050:1,2008-05-01T07:00:00Z,28.8425,-94.2433,2.0,319.3179894,9.204368528,-99999.0,'11133222,11111222,99999999' 
TABS,ioos:station:wmo:42050:1,2008-05-01T07:30:00Z,28.8425,-94.2433,2.0,331.5330035,8.622557625,-99999.0,'11133222,11111222,99999999' 
TABS,ioos:station:wmo:42050:1,2008-05-01T08:00:00Z,28.8425,-94.2433,2.0,306.9856811,6.948014105,-99999.0,'11133222,11111222,99999999' 
TABS,ioos:station:wmo:42050:1,2008-05-01T08:30:00Z,28.8425,-94.2433,2.0,347.4624978,6.955875215,-99999.0,'11133222,11111222,99999999' 
TABS,ioos:station:wmo:42050:1,2008-05-01T09:00:00Z,28.8425,-94.2433,2.0,339.4171146,7.423920797,-99999.0,'11133222,11111222,99999999' 
TABS,ioos:station:wmo:42050:1,2008-05-01T09:30:00Z,28.8425,-94.2433,2.0,346.0719011,7.727198716,-99999.0,'11133222,11111222,99999999' 
TABS,ioos:station:wmo:42050:1,2008-05-01T10:00:00Z,28.8425,-94.2433,2.0,13.64741688,7.501799784,-99999.0,'11133222,11111222,99999999' 
TABS,ioos:station:wmo:42050:1,2008-05-01T10:30:00Z,28.8425,-94.2433,2.0,356.4190314,7.36438049,-99999.0,'11133222,11111222,99999999' 
TABS,ioos:station:wmo:42050:1,2008-05-01T11:00:00Z,28.8425,-94.2433,2.0,17.48254476,1.33150291,-99999.0,'11133222,11111222,99999999' 
TABS,ioos:station:wmo:42050:1,2008-05-01T11:30:00Z,28.8425,-94.2433,2.0,21.69912737,10.38595686,-99999.0,'11111222,11111222,99999999' 
TABS,ioos:station:wmo:42050:1,2008-05-01T12:00:00Z,28.8425,-94.2433,2.0,15.58235382,8.450591695,-99999.0,'11133222,11111222,99999999' 
TABS,ioos:station:wmo:42050:1,2008-05-01T12:30:00Z,28.8425,-94.2433,2.0,25.66449995,7.965858397,-99999.0,'11133222,11111222,99999999' 
TABS,ioos:station:wmo:42050:1,2008-05-01T13:00:00Z,28.8425,-94.2433,2.0,25.59064097,7.362200758,-99999.0,'11133222,11111222,99999999' 
TABS,ioos:station:wmo:42050:1,2008-05-01T13:30:00Z,28.8425,-94.2433,2.0,0.330124157,5.210086372,-99999.0,'11133222,11111222,99999999' 
TABS,ioos:station:wmo:42050:1,2008-05-01T14:00:00Z,28.8425,-94.2433,2.0,30.79415307,6.36777041,-99999.0,'11133222,11111222,99999999' 
TABS,ioos:station:wmo:42050:1,2008-05-01T14:30:00Z,28.8425,-94.2433,2.0,13.08595125,4.240106131,-99999.0,'11133222,11111222,99999999' 
TABS,ioos:station:wmo:42050:1,2008-05-01T15:00:00Z,28.8425,-94.2433,2.0,345.9639998,5.153882032,-99999.0,'11133222,11111222,99999999' 
TABS,ioos:station:wmo:42050:1,2008-05-01T15:30:00Z,28.8425,-94.2433,2.0,350.0886186,4.821970552,-99999.0,'11133222,11111222,99999999' 
TABS,ioos:station:wmo:42050:1,2008-05-01T16:00:00Z,28.8425,-94.2433,2.0,338.198852,1.723252738,-99999.0,'11133222,11111222,99999999' 
TABS,ioos:station:wmo:42050:1,2008-05-01T16:30:00Z,28.8425,-94.2433,2.0,304.2008251,2.490702712,-99999.0,'11133222,11111222,99999999' 
TABS,ioos:station:wmo:42050:1,2008-05-01T17:00:00Z,28.8425,-94.2433,2.0,295.9591295,1.690562037,-99999.0,'11133222,11111222,99999999' 
TABS,ioos:station:wmo:42050:1,2008-05-01T17:30:00Z,28.8425,-94.2433,2.0,285.5501887,1.193691753,-99999.0,'11133222,11111222,99999999' 
TABS,ioos:station:wmo:42050:1,2008-05-01T18:00:00Z,28.8425,-94.2433,2.0,291.3213771,4.208004278,-99999.0,'11133222,11111222,99999999' 
TABS,ioos:station:wmo:42050:1,2008-05-01T18:30:00Z,28.8425,-94.2433,2.0,207.9506932,0.55470713,-99999.0,'11133222,11111222,99999999' 
TABS,ioos:station:wmo:42050:1,2008-05-01T19:00:00Z,28.8425,-94.2433,2.0,234.1325571,2.628402557,-99999.0,'11133222,11111222,99999999' 
TABS,ioos:station:wmo:42050:1,2008-05-01T19:30:00Z,28.8425,-94.2433,2.0,247.77001,2.484673017,-99999.0,'11133222,11111222,99999999' 
TABS,ioos:station:wmo:42050:1,2008-05-01T20:00:00Z,28.8425,-94.2433,2.0,223.8926599,2.927968579,-99999.0,'11133222,11111222,99999999' 
TABS,ioos:station:wmo:42050:1,2008-05-01T20:30:00Z,28.8425,-94.2433,2.0,238.9213954,8.581806337,-99999.0,'11133222,11111222,99999999' 
TABS,ioos:station:wmo:42050:1,2008-05-01T21:00:00Z,28.8425,-94.2433,2.0,228.8137502,5.421374364,-99999.0,'11133222,11111222,99999999' 
TABS,ioos:station:wmo:42050:1,2008-05-01T21:30:00Z,28.8425,-94.2433,2.0,219.3799881,3.104979871,-99999.0,'11133222,11111222,99999999' 
TABS,ioos:station:wmo:42050:1,2008-05-01T22:00:00Z,28.8425,-94.2433,2.0,280.906394,5.285461191,-99999.0,'11133222,11111222,99999999' 
TABS,ioos:station:wmo:42050:1,2008-05-01T22:30:00Z,28.8425,-94.2433,2.0,274.0410833,4.541288363,-99999.0,'11133222,11111222,99999999' 
TABS,ioos:station:wmo:42050:1,2008-05-01T23:00:00Z,28.8425,-94.2433,2.0,268.0167668,7.514499318,-99999.0,'11133222,11111222,99999999' 
TABS,ioos:station:wmo:42050:1,2008-05-01T23:30:00Z,28.8425,-94.2433,2.0,267.2098369,4.725600491,-99999.0,'11133222,11111222,99999999' 
TABS,ioos:station:wmo:42050:1,2008-05-02T00:00:00Z,28.8425,-94.2433,2.0,279.2620756,4.225079881,-99999.0,'11133222,11111222,99999999' 
TABS,ioos:station:wmo:42050:1,2008-05-02T00:30:00Z,28.8425,-94.2433,2.0,290.0031801,4.969798789,-99999.0,'11133222,11111222,99999999' 
TABS,ioos:station:wmo:42050:1,2008-05-02T01:00:00Z,28.8425,-94.2433,2.0,312.0486878,9.74979487,-99999.0,'11133222,11111222,99999999' 
TABS,ioos:station:wmo:42050:1,2008-05-02T01:30:00Z,28.8425,-94.2433,2.0,310.0843949,6.848773613,-99999.0,'11133222,11111222,99999999' 
TABS,ioos:station:wmo:42050:1,2008-05-02T02:00:00Z,28.8425,-94.2433,2.0,327.7762061,20.27260713,-99999.0,'11111222,11111222,99999999' 
TABS,ioos:station:wmo:42050:1,2008-05-02T02:30:00Z,28.8425,-94.2433,2.0,323.3981561,23.9662617,-99999.0,'11111222,11111222,99999999' 
TABS,ioos:station:wmo:42050:1,2008-05-02T03:00:00Z,28.8425,-94.2433,2.0,340.2211505,23.99564127,-99999.0,'11111222,11111222,99999999' 
TABS,ioos:station:wmo:42050:1,2008-05-02T03:30:00Z,28.8425,-94.2433,2.0,341.8708786,23.71741976,-99999.0,'11111222,11111222,99999999' 
TABS,ioos:station:wmo:42050:1,2008-05-02T04:00:00Z,28.8425,-94.2433,2.0,339.801764,19.3180175,-99999.0,'11111222,11111222,99999999' 
TABS,ioos:station:wmo:42050:1,2008-05-02T04:30:00Z,28.8425,-94.2433,2.0,345.1015499,15.79085811,-99999.0,'11111222,11111222,99999999' 
TABS,ioos:station:wmo:42050:1,2008-05-02T05:00:00Z,28.8425,-94.2433,2.0,349.3513787,13.25833323,-99999.0,'11111222,11111222,99999999' 
TABS,ioos:station:wmo:42050:1,2008-05-02T05:30:00Z,28.8425,-94.2433,2.0,351.8701271,10.81873375,-99999.0,'11111222,11111222,99999999' 
TABS,ioos:station:wmo:42050:1,2008-05-02T06:00:00Z,28.8425,-94.2433,2.0,354.717624,7.059985836,-99999.0,'11133222,11111222,99999999' 
TABS,ioos:station:wmo:42050:1,2008-05-02T06:30:00Z,28.8425,-94.2433,2.0,355.2151249,4.43545939,-99999.0,'11133222,11111222,99999999' 
TABS,ioos:station:wmo:42050:1,2008-05-02T07:00:00Z,28.8425,-94.2433,2.0,49.94495996,3.527449504,-99999.0,'11133222,11111222,99999999' 
TABS,ioos:station:wmo:42050:1,2008-05-02T07:30:00Z,28.8425,-94.2433,2.0,55.27341185,2.299608662,-99999.0,'11133222,11111222,99999999' 
TABS,ioos:station:wmo:42050:1,2008-05-02T08:00:00Z,28.8425,-94.2433,2.0,120.3857382,2.550313706,-99999.0,'11133222,11111222,99999999' 
TABS,ioos:station:wmo:42050:1,2008-05-02T08:30:00Z,28.8425,-94.2433,2.0,83.81827302,3.993219253,-99999.0,'11133222,11111222,99999999' 
TABS,ioos:station:wmo:42050:1,2008-05-02T09:00:00Z,28.8425,-94.2433,2.0,140.0828957,5.2674472,-99999.0,'11133222,11111222,99999999' 
TABS,ioos:station:wmo:42050:1,2008-05-02T09:30:00Z,28.8425,-94.2433,2.0,124.9640641,3.367862824,-99999.0,'11133222,11111222,99999999' 
TABS,ioos:station:wmo:42050:1,2008-05-02T10:00:00Z,28.8425,-94.2433,2.0,140.3116986,6.874314511,-99999.0,'11133222,11111222,99999999' 
TABS,ioos:station:wmo:42050:1,2008-05-02T10:30:00Z,28.8425,-94.2433,2.0,139.4982488,7.483027462,-99999.0,'11133222,11111222,99999999' 
TABS,ioos:station:wmo:42050:1,2008-05-02T11:00:00Z,28.8425,-94.2433,2.0,170.2265859,2.120778159,-99999.0,'11133222,11111222,99999999' 
TABS,ioos:station:wmo:42050:1,2008-05-02T11:30:00Z,28.8425,-94.2433,2.0,124.7236417,5.073558909,-99999.0,'11133222,11111222,99999999' 
TABS,ioos:station:wmo:42050:1,2008-05-02T12:00:00Z,28.8425,-94.2433,2.0,167.9692216,3.118493226,-99999.0,'11133222,11111222,99999999' 
TABS,ioos:station:wmo:42050:1,2008-05-02T12:30:00Z,28.8425,-94.2433,2.0,152.5970161,3.976153921,-99999.0,'11133222,11111222,99999999' 
TABS,ioos:station:wmo:42050:1,2008-05-02T13:00:00Z,28.8425,-94.2433,2.0,100.1620594,1.076893681,-99999.0,'11133222,11111222,99999999' 
TABS,ioos:station:wmo:42050:1,2008-05-02T13:30:00Z,28.8425,-94.2433,2.0,103.3835627,2.980956222,-99999.0,'11133222,11111222,99999999' 
TABS,ioos:station:wmo:42050:1,2008-05-02T14:00:00Z,28.8425,-94.2433,2.0,134.6302506,2.192076641,-99999.0,'11133222,11111222,99999999' 
TABS,ioos:station:wmo:42050:1,2008-05-02T14:30:00Z,28.8425,-94.2433,2.0,234.8996813,3.043451987,-99999.0,'11133222,11111222,99999999' 
TABS,ioos:station:wmo:42050:1,2008-05-02T15:00:00Z,28.8425,-94.2433,2.0,242.1257784,2.545309411,-99999.0,'11133222,11111222,99999999' 
TABS,ioos:station:wmo:42050:1,2008-05-02T15:30:00Z,28.8425,-94.2433,2.0,275.3660393,3.635931793,-99999.0,'11133222,11111222,99999999' 
TABS,ioos:station:wmo:42050:1,2008-05-02T16:00:00Z,28.8425,-94.2433,2.0,235.167436,2.643671689,-99999.0,'11133222,11111222,99999999' 
TABS,ioos:station:wmo:42050:1,2008-05-02T16:30:00Z,28.8425,-94.2433,2.0,253.4765902,4.360045871,-99999.0,'11133222,11111222,99999999' 
TABS,ioos:station:wmo:42050:1,2008-05-02T17:00:00Z,28.8425,-94.2433,2.0,272.8878859,4.565796754,-99999.0,'11133222,11111222,99999999' 
TABS,ioos:station:wmo:42050:1,2008-05-02T17:30:00Z,28.8425,-94.2433,2.0,222.9413188,3.346774567,-99999.0,'11133222,11111222,99999999' 
TABS,ioos:station:wmo:42050:1,2008-05-02T18:00:00Z,28.8425,-94.2433,2.0,250.5391489,7.774123745,-99999.0,'11133222,11111222,99999999' 
TABS,ioos:station:wmo:42050:1,2008-05-02T18:30:00Z,28.8425,-94.2433,2.0,218.3465096,5.431804488,-99999.0,'11133222,11111222,99999999' 
TABS,ioos:station:wmo:42050:1,2008-05-02T19:00:00Z,28.8425,-94.2433,2.0,219.3828488,9.030686574,-99999.0,'11133222,11111222,99999999' 
TABS,ioos:station:wmo:42050:1,2008-05-02T19:30:00Z,28.8425,-94.2433,2.0,215.7412825,12.08634353,-99999.0,'11111222,11111222,99999999' 
TABS,ioos:station:wmo:42050:1,2008-05-02T20:00:00Z,28.8425,-94.2433,2.0,215.4619571,11.47946427,-99999.0,'11111222,11111222,99999999' 
TABS,ioos:station:wmo:42050:1,2008-05-02T20:30:00Z,28.8425,-94.2433,2.0,214.2272825,15.96497416,-99999.0,'11111222,11111222,99999999' 
TABS,ioos:station:wmo:42050:1,2008-05-02T21:00:00Z,28.8425,-94.2433,2.0,228.1327405,13.45514028,-99999.0,'11111222,11111222,99999999' 
TABS,ioos:station:wmo:42050:1,2008-05-02T21:30:00Z,28.8425,-94.2433,2.0,224.9996843,12.75620633,-99999.0,'11111222,11111222,99999999' 
TABS,ioos:station:wmo:42050:1,2008-05-02T22:00:00Z,28.8425,-94.2433,2.0,230.01064,13.19554849,-99999.0,'11111222,11111222,99999999' 
TABS,ioos:station:wmo:42050:1,2008-05-02T22:30:00Z,28.8425,-94.2433,2.0,230.8549569,14.20919773,-99999.0,'11111222,11111222,99999999' 
TABS,ioos:station:wmo:42050:1,2008-05-02T23:00:00Z,28.8425,-94.2433,2.0,238.8054713,9.808083401,-99999.0,'11133222,11111222,99999999' 
TABS,ioos:station:wmo:42050:1,2008-05-02T23:30:00Z,28.8425,-94.2433,2.0,249.7771125,12.06363544,-99999.0,'11111222,11111222,99999999' 
TABS,ioos:station:wmo:42050:1,2008-05-03T00:00:00Z,28.8425,-94.2433,2.0,253.1885995,14.72948064,-99999.0,'11111222,11111222,99999999' 
TABS,ioos:station:wmo:42050:1,2008-05-03T00:30:00Z,28.8425,-94.2433,2.0,255.7588463,9.512307817,-99999.0,'11133222,11111222,99999999' 
TABS,ioos:station:wmo:42050:1,2008-05-03T01:00:00Z,28.8425,-94.2433,2.0,253.8757994,3.528809998,-99999.0,'11133222,11111222,99999999' 
TABS,ioos:station:wmo:42050:1,2008-05-03T01:30:00Z,28.8425,-94.2433,2.0,271.9223724,4.47251607,-99999.0,'11133222,11111222,99999999' 
TABS,ioos:station:wmo:42050:1,2008-05-03T02:00:00Z,28.8425,-94.2433,2.0,285.0008583,12.82710022,-99999.0,'11111222,11111222,99999999' 
TABS,ioos:station:wmo:42050:1,2008-05-03T02:30:00Z,28.8425,-94.2433,2.0,300.3427322,13.91621357,-99999.0,'11111222,11111222,99999999' 
TABS,ioos:station:wmo:42050:1,2008-05-03T03:00:00Z,28.8425,-94.2433,2.0,300.3153198,16.20594027,-99999.0,'11111222,11111222,99999999' 
TABS,ioos:station:wmo:42050:1,2008-05-03T03:30:00Z,28.8425,-94.2433,2.0,310.1472306,16.5490604,-99999.0,'11111222,11111222,99999999' 
TABS,ioos:station:wmo:42050:1,2008-05-03T04:00:00Z,28.8425,-94.2433,2.0,314.1927382,17.55920556,-99999.0,'11111222,11111222,99999999' 
TABS,ioos:station:wmo:42050:1,2008-05-03T04:30:00Z,28.8425,-94.2433,2.0,310.9934896,21.25100468,-99999.0,'11111222,11111222,99999999' 
TABS,ioos:station:wmo:42050:1,2008-05-03T05:00:00Z,28.8425,-94.2433,2.0,314.005206,22.8005614,-99999.0,'11111222,11111222,99999999' 
TABS,ioos:station:wmo:42050:1,2008-05-03T05:30:00Z,28.8425,-94.2433,2.0,319.7866833,19.23674869,-99999.0,'11111222,11111222,99999999' 
TABS,ioos:station:wmo:42050:1,2008-05-03T06:00:00Z,28.8425,-94.2433,2.0,326.6524758,19.50083332,-99999.0,'11111222,11111222,99999999' 
TABS,ioos:station:wmo:42050:1,2008-05-03T06:30:00Z,28.8425,-94.2433,2.0,321.2297551,16.16089106,-99999.0,'11111222,11111222,99999999' 
TABS,ioos:station:wmo:42050:1,2008-05-03T07:00:00Z,28.8425,-94.2433,2.0,321.4769783,15.73455115,-99999.0,'11111222,11111222,99999999' 
TABS,ioos:station:wmo:42050:1,2008-05-03T07:30:00Z,28.8425,-94.2433,2.0,321.9577179,13.19276317,-99999.0,'11111222,11111222,99999999' 
TABS,ioos:station:wmo:42050:1,2008-05-03T08:00:00Z,28.8425,-94.2433,2.0,313.1180376,9.041703379,-99999.0,'11133222,11111222,99999999' 
TABS,ioos:station:wmo:42050:1,2008-05-03T08:30:00Z,28.8425,-94.2433,2.0,304.9050923,4.840847033,-99999.0,'11133222,11111222,99999999' 
TABS,ioos:station:wmo:42050:1,2008-05-03T09:00:00Z,28.8425,-94.2433,2.0,316.5794949,5.644856065,-99999.0,'11133222,11111222,99999999' 
TABS,ioos:station:wmo:42050:1,2008-05-03T09:30:00Z,28.8425,-94.2433,2.0,302.5431696,4.294240329,-99999.0,'11133222,11111222,99999999' 
TABS,ioos:station:wmo:42050:1,2008-05-03T10:00:00Z,28.8425,-94.2433,2.0,224.5182196,2.524460338,-99999.0,'11133222,11111222,99999999' 
TABS,ioos:station:wmo:42050:1,2008-05-03T10:30:00Z,28.8425,-94.2433,2.0,268.2869305,3.011345214,-99999.0,'11133222,11111222,99999999' 
TABS,ioos:station:wmo:42050:1,2008-05-03T11:00:00Z,28.8425,-94.2433,2.0,279.5164189,1.754137965,-99999.0,'11133222,11111222,99999999' 
TABS,ioos:station:wmo:42050:1,2008-05-03T11:30:00Z,28.8425,-94.2433,2.0,294.9357311,4.24577437,-99999.0,'11133222,11111222,99999999' 
TABS,ioos:station:wmo:42050:1,2008-05-03T12:00:00Z,28.8425,-94.2433,2.0,340.7102093,3.602235417,-99999.0,'11133222,11111222,99999999' 
TABS,ioos:station:wmo:42050:1,2008-05-03T12:30:00Z,28.8425,-94.2433,2.0,29.05474662,30.68097782,-99999.0,'11111222,11111222,99999999' 
TABS,ioos:station:wmo:42050:1,2008-05-03T13:00:00Z,28.8425,-94.2433,2.0,25.00128149,32.93613365,-99999.0,'11111222,11111222,99999999' 
TABS,ioos:station:wmo:42050:1,2008-05-03T13:30:00Z,28.8425,-94.2433,2.0,23.34738457,34.418158,-99999.0,'11111222,11111222,99999999' 
TABS,ioos:station:wmo:42050:1,2008-05-03T14:00:00Z,28.8425,-94.2433,2.0,20.41835125,33.07826477,-99999.0,'11111222,11111222,99999999' 
TABS,ioos:station:wmo:42050:1,2008-05-03T14:30:00Z,28.8425,-94.2433,2.0,23.22383421,35.98584444,-99999.0,'11111222,11111222,99999999' 
TABS,ioos:station:wmo:42050:1,2008-05-03T15:00:00Z,28.8425,-94.2433,2.0,27.54068361,35.98802162,-99999.0,'11111222,11111222,99999999' 
TABS,ioos:station:wmo:42050:1,2008-05-03T15:30:00Z,28.8425,-94.2433,2.0,22.11150208,35.01522526,-99999.0,'11111222,11111222,99999999' 
TABS,ioos:station:wmo:42050:1,2008-05-03T16:00:00Z,28.8425,-94.2433,2.0,19.18956431,31.70141953,-99999.0,'11111222,11111222,99999999' 
TABS,ioos:station:wmo:42050:1,2008-05-03T16:30:00Z,28.8425,-94.2433,2.0,19.0491939,29.5057452,-99999.0,'11111222,11111222,99999999' 
TABS,ioos:station:wmo:42050:1,2008-05-03T17:00:00Z,28.8425,-94.2433,2.0,21.20832863,30.1306837,-99999.0,'11111222,11111222,99999999' 
TABS,ioos:station:wmo:42050:1,2008-05-03T17:30:00Z,28.8425,-94.2433,2.0,22.07269403,27.86204049,-99999.0,'11111222,11111222,99999999' 
TABS,ioos:station:wmo:42050:1,2008-05-03T18:00:00Z,28.8425,-94.2433,2.0,31.88240553,26.63886822,-99999.0,'11111222,11111222,99999999' 
TABS,ioos:station:wmo:42050:1,2008-05-03T18:30:00Z,28.8425,-94.2433,2.0,75.99551452,21.9009703,-99999.0,'11111222,11111222,99999999' 
TABS,ioos:station:wmo:42050:1,2008-05-03T19:00:00Z,28.8425,-94.2433,2.0,69.24214381,10.29851446,-99999.0,'11111222,11111222,99999999' 
TABS,ioos:station:wmo:42050:1,2008-05-03T19:30:00Z,28.8425,-94.2433,2.0,151.4711475,3.915418241,-99999.0,'11133222,11111222,99999999' 
TABS,ioos:station:wmo:42050:1,2008-05-03T20:00:00Z,28.8425,-94.2433,2.0,177.0301609,9.072182758,-99999.0,'11133222,11111222,99999999' 
TABS,ioos:station:wmo:42050:1,2008-05-03T20:30:00Z,28.8425,-94.2433,2.0,198.7342217,8.468695295,-99999.0,'11133222,11111222,99999999' 
TABS,ioos:station:wmo:42050:1,2008-05-03T21:00:00Z,28.8425,-94.2433,2.0,220.6152846,8.69457302,-99999.0,'11133222,11111222,99999999' 
TABS,ioos:station:wmo:42050:1,2008-05-03T21:30:00Z,28.8425,-94.2433,2.0,226.4862021,11.7207039,-99999.0,'11111222,11111222,99999999' 
TABS,ioos:station:wmo:42050:1,2008-05-03T22:00:00Z,28.8425,-94.2433,2.0,220.6714833,19.39468226,-99999.0,'11111222,11111222,99999999' 
TABS,ioos:station:wmo:42050:1,2008-05-03T22:30:00Z,28.8425,-94.2433,2.0,231.0744912,14.49932757,-99999.0,'11111222,11111222,99999999' 
TABS,ioos:station:wmo:42050:1,2008-05-03T23:00:00Z,28.8425,-94.2433,2.0,248.759738,11.17939623,-99999.0,'11111222,11111222,99999999' 
TABS,ioos:station:wmo:42050:1,2008-05-03T23:30:00Z,28.8425,-94.2433,2.0,258.6592667,11.08644668,-99999.0,'11111222,11111222,99999999' 
TABS,ioos:station:wmo:42050:1,2008-05-04T00:00:00Z,28.8425,-94.2433,2.0,266.9703359,10.97533599,-99999.0,'11111222,11111222,99999999' 
TABS,ioos:station:wmo:42050:1,2008-05-04T00:30:00Z,28.8425,-94.2433,2.0,266.4951169,12.43324978,-99999.0,'11111222,11111222,99999999' 
TABS,ioos:station:wmo:42050:1,2008-05-04T01:00:00Z,28.8425,-94.2433,2.0,292.1111959,12.03509036,-99999.0,'11111222,11111222,99999999' 
TABS,ioos:station:wmo:42050:1,2008-05-04T01:30:00Z,28.8425,-94.2433,2.0,288.0486212,14.52467211,-99999.0,'11111222,11111222,99999999' 
TABS,ioos:station:wmo:42050:1,2008-05-04T02:00:00Z,28.8425,-94.2433,2.0,299.4120202,60.7842496,-99999.0,'11111222,11111222,99999999' 
TABS,ioos:station:wmo:42050:1,2008-05-04T02:30:00Z,28.8425,-94.2433,2.0,303.9633205,59.39242376,-99999.0,'11111222,11111222,99999999' 
TABS,ioos:station:wmo:42050:1,2008-05-04T03:00:00Z,28.8425,-94.2433,2.0,308.4841113,61.00019754,-99999.0,'11111222,11111222,99999999' 
TABS,ioos:station:wmo:42050:1,2008-05-04T03:30:00Z,28.8425,-94.2433,2.0,314.4291461,59.58377799,-99999.0,'11111222,11111222,99999999' 
TABS,ioos:station:wmo:42050:1,2008-05-04T04:00:00Z,28.8425,-94.2433,2.0,311.9594853,62.24940562,-99999.0,'11111222,11111222,99999999' 
TABS,ioos:station:wmo:42050:1,2008-05-04T04:30:00Z,28.8425,-94.2433,2.0,314.4847123,65.2190992,-99999.0,'11111222,11111222,99999999' 
TABS,ioos:station:wmo:42050:1,2008-05-04T05:00:00Z,28.8425,-94.2433,2.0,315.3283038,62.99717533,-99999.0,'11111222,11111222,99999999' 
TABS,ioos:station:wmo:42050:1,2008-05-04T05:30:00Z,28.8425,-94.2433,2.0,315.6704096,65.29870596,-99999.0,'11111222,11111222,99999999' 
TABS,ioos:station:wmo:42050:1,2008-05-04T06:00:00Z,28.8425,-94.2433,2.0,311.712679,63.99241596,-99999.0,'11111222,11111222,99999999' 
TABS,ioos:station:wmo:42050:1,2008-05-04T06:30:00Z,28.8425,-94.2433,2.0,312.1051781,61.17918355,-99999.0,'11111222,11111222,99999999' 
TABS,ioos:station:wmo:42050:1,2008-05-04T07:00:00Z,28.8425,-94.2433,2.0,306.5518951,60.83493897,-99999.0,'11111222,11111222,99999999' 
TABS,ioos:station:wmo:42050:1,2008-05-04T07:30:00Z,28.8425,-94.2433,2.0,307.1280957,57.77058508,-99999.0,'11111222,11111222,99999999' 
TABS,ioos:station:wmo:42050:1,2008-05-04T08:00:00Z,28.8425,-94.2433,2.0,305.1358751,51.67567319,-99999.0,'11111222,11111222,99999999' 
TABS,ioos:station:wmo:42050:1,2008-05-04T08:30:00Z,28.8425,-94.2433,2.0,301.1102862,52.4307181,-99999.0,'11111222,11111222,99999999' 
TABS,ioos:station:wmo:42050:1,2008-05-04T09:00:00Z,28.8425,-94.2433,2.0,300.0408131,46.40325204,-99999.0,'11111222,11111222,99999999' 
TABS,ioos:station:wmo:42050:1,2008-05-04T09:30:00Z,28.8425,-94.2433,2.0,296.630264,43.46024505,-99999.0,'11111222,11111222,99999999' 
TABS,ioos:station:wmo:42050:1,2008-05-04T10:00:00Z,28.8425,-94.2433,2.0,292.254639,41.35007255,-99999.0,'11111222,11111222,99999999' 
TABS,ioos:station:wmo:42050:1,2008-05-04T10:30:00Z,28.8425,-94.2433,2.0,292.4780446,41.53551252,-99999.0,'11111222,11111222,99999999' 
TABS,ioos:station:wmo:42050:1,2008-05-04T11:00:00Z,28.8425,-94.2433,2.0,292.1542679,20.52529415,-99999.0,'11111222,11111222,99999999' 
TABS,ioos:station:wmo:42050:1,2008-05-04T11:30:00Z,28.8425,-94.2433,2.0,279.5683223,20.51538447,-99999.0,'11111222,11111222,99999999' 
TABS,ioos:station:wmo:42050:1,2008-05-04T12:00:00Z,28.8425,-94.2433,2.0,285.4888861,24.97706548,-99999.0,'11111222,11111222,99999999' 
TABS,ioos:station:wmo:42050:1,2008-05-04T12:30:00Z,28.8425,-94.2433,2.0,287.812216,22.09930316,-99999.0,'11111222,11111222,99999999' 
TABS,ioos:station:wmo:42050:1,2008-05-04T13:00:00Z,28.8425,-94.2433,2.0,276.4687987,24.67709059,-99999.0,'11111222,11111222,99999999' 
TABS,ioos:station:wmo:42050:1,2008-05-04T13:30:00Z,28.8425,-94.2433,2.0,281.3974023,25.80891319,-99999.0,'11111222,11111222,99999999' 
TABS,ioos:station:wmo:42050:1,2008-05-04T14:00:00Z,28.8425,-94.2433,2.0,273.2964062,24.35027926,-99999.0,'11111222,11111222,99999999' 
TABS,ioos:station:wmo:42050:1,2008-05-04T14:30:00Z,28.8425,-94.2433,2.0,277.231996,22.00504033,-99999.0,'11111222,11111222,99999999' 
TABS,ioos:station:wmo:42050:1,2008-05-04T15:00:00Z,28.8425,-94.2433,2.0,277.3033137,25.56740308,-99999.0,'11111222,11111222,99999999' 
TABS,ioos:station:wmo:42050:1,2008-05-04T15:30:00Z,28.8425,-94.2433,2.0,276.7635814,25.72903807,-99999.0,'11111222,11111222,99999999' 
TABS,ioos:station:wmo:42050:1,2008-05-04T16:00:00Z,28.8425,-94.2433,2.0,272.759792,25.54962426,-99999.0,'11111222,11111222,99999999' 